Weather History for Yakutat, AK

Change the Weather History Date:

Sunday, December 9, 2012

  Actual Average Record
Temperature  
Mean Temperature 37 °F 30 °F  
Max Temperature 41 °F 35 °F 49 °F (1960)
Min Temperature 32 °F 25 °F -7 °F (1977)
Degree Days  
Heating Degree Days 28 35  
Month to date heating degree days 400 315  
Since 1 July heating degree days 3537 3213  
Cooling Degree Days 0    
Month to date cooling degree days 0  
Year to date cooling degree days 0  
Moisture  
Dew Point 35 °F    
Average Humidity 0    
Maximum Humidity 0    
Minimum Humidity 0    
Precipitation  
Precipitation 0.23 in 0.55 in 7.02 in (1986)
Month to date precipitation 1.37 4.67  
Year to date precipitation 101.16 143.51  
Snow  
Snow 0.60 in 0.70 in 5.60 in (1953)
Month to date snowfall 11.8 6.8  
Since 1 July snowfall 37.7 27.5  
Snow Depth 14.00 in    
Sea Level Pressure  
Sea Level Pressure 29.63 in    
Wind  
Wind Speed 8 mph (SSW)    
Max Wind Speed 16 mph    
Max Gust Speed 22 mph    
Visibility 7 miles    
Events Rain , Snow    
T = Trace of Precipitation, MM = Missing Value Source: NWS Daily Summary

Daily Weather History Graph

Daily Weather History Graph

Search for Another Location

Airport:

Trip Planner

Search our weather history database for the weather conditions in past years. The results will help you decide how hot, cold, wet, or windy it might be!

Date:

Astronomy

Dec. 09, 2012 Rise Set
Actual Time 9:04 AM AKST 3:17 PM AKST
Civil Twilight 8:09 AM AKST 4:12 PM AKST
Nautical Twilight 7:14 AM AKST 5:07 PM AKST
Astronomical Twilight 6:24 AM AKST 5:58 PM AKST
Moon 3:58 AM AKST (12/9) 1:13 PM AKST (12/9)
Length of Visible Light 8h 03m
Length of Day
6h 13m
Waning Crescent, 17% of the Moon is Illuminated
Dec 9
Waning Crescent
Dec 12
New
Dec 19
First Quarter
Dec 28
Full
Jan 4
Last Quarter

Hourly Weather History & Observations

Time (AKST) Temp. Windchill Dew Point Humidity Pressure Visibility Wind Dir Wind Speed Gust Speed Precip Events Conditions
12:05 AM 32.0 °F 24.2 °F 32.0 °F 100% 29.53 in 0.8 mi East 9.2 mph 18.4 mph 0.02 in Snow Light Snow
12:08 AM 32.0 °F 23.6 °F 32.0 °F 100% 29.53 in 1.0 mi East 10.4 mph 18.4 mph 0.02 in Snow Light Snow
12:53 AM 33.1 °F 25.5 °F 32.0 °F 96% 29.53 in 1.2 mi East 9.2 mph 17.3 mph 0.06 in Snow Light Snow
1:15 AM 33.8 °F 25.3 °F 32.0 °F 93% 29.52 in 1.0 mi East 11.5 mph - 0.01 in Snow Light Snow
1:26 AM 33.8 °F 26.4 °F 32.0 °F 93% 29.51 in 1.2 mi East 9.2 mph 19.6 mph 0.02 in Snow Light Snow
1:53 AM 33.1 °F 26.1 °F 32.0 °F 96% 29.50 in 2.0 mi SE 8.1 mph 26.5 mph 0.02 in Snow Light Snow
2:01 AM 33.8 °F 25.3 °F 32.0 °F 93% 29.50 in 2.5 mi ESE 11.5 mph 18.4 mph 0.01 in Snow Light Snow
2:28 AM 33.8 °F 24.8 °F 33.8 °F 100% 29.49 in 2.0 mi ESE 12.7 mph 24.2 mph 0.04 in Rain Rain
2:38 AM 35.6 °F 30.7 °F 35.6 °F 100% 29.49 in 3.0 mi Variable 5.8 mph - 0.05 in Rain Light Rain
2:42 AM 35.6 °F - 35.6 °F 100% 29.50 in 3.0 mi Calm Calm - 0.06 in Rain Light Rain
3:01 AM 37.4 °F 32.8 °F 37.4 °F 100% 29.50 in 10.0 mi WSW 5.8 mph - N/A   Overcast
3:53 AM 39.9 °F 32.5 °F 37.0 °F 89% 29.52 in 10.0 mi WSW 12.7 mph 23.0 mph 0.00 in   Overcast
4:29 AM 39.2 °F 32.5 °F 37.4 °F 93% 29.52 in 10.0 mi SW 10.4 mph - N/A   Overcast
4:53 AM 41.0 °F 33.9 °F 37.0 °F 86% 29.54 in 10.0 mi WSW 12.7 mph - N/A   Overcast
5:11 AM 41.0 °F 35.8 °F 37.4 °F 87% 29.54 in 9.0 mi SW 8.1 mph - N/A   Overcast
5:34 AM 39.2 °F 33.0 °F 37.4 °F 93% 29.56 in 10.0 mi SW 9.2 mph - N/A   Mostly Cloudy
5:45 AM 39.2 °F 33.0 °F 37.4 °F 93% 29.56 in 10.0 mi SW 9.2 mph - N/A   Overcast
5:53 AM 39.9 °F 34.5 °F 37.0 °F 89% 29.56 in 10.0 mi SW 8.1 mph - N/A   Overcast
6:53 AM 39.0 °F 31.0 °F 36.0 °F 89% 29.58 in 8.0 mi West 13.8 mph 20.7 mph 0.03 in Rain Light Rain
7:09 AM 39.2 °F 31.6 °F 35.6 °F 87% 29.58 in 8.0 mi WSW 12.7 mph - 0.01 in Rain Light Rain
7:19 AM 37.4 °F 27.8 °F 35.6 °F 93% 29.58 in 3.0 mi WSW 17.3 mph 24.2 mph 0.04 in Rain Rain
7:53 AM 39.9 °F 33.9 °F 37.0 °F 89% 29.59 in 10.0 mi SW 9.2 mph - 0.07 in   Overcast
8:02 AM 39.2 °F 32.5 °F 37.4 °F 93% 29.59 in 9.0 mi SW 10.4 mph - N/A   Overcast
8:53 AM 41.0 °F 33.9 °F 37.0 °F 86% 29.61 in 7.0 mi SW 12.7 mph - N/A   Overcast
9:26 AM 41.0 °F 34.7 °F 37.4 °F 87% 29.61 in 6.0 mi SW 10.4 mph - N/A   Overcast
9:40 AM 41.0 °F 35.2 °F 35.6 °F 81% 29.61 in 7.0 mi WSW 9.2 mph - N/A   Mostly Cloudy
9:53 AM 39.9 °F 34.5 °F 36.0 °F 86% 29.62 in 8.0 mi SW 8.1 mph - N/A   Mostly Cloudy
10:53 AM 39.9 °F 32.9 °F 35.1 °F 83% 29.64 in 10.0 mi WSW 11.5 mph - N/A   Mostly Cloudy
11:24 AM 41.0 °F 34.7 °F 37.4 °F 87% 29.65 in 7.0 mi SSW 10.4 mph 18.4 mph N/A   Overcast
11:53 AM 39.0 °F 33.4 °F 35.1 °F 86% 29.67 in 9.0 mi West 8.1 mph 21.9 mph 0.00 in Rain Light Rain
12:36 PM 37.4 °F - 35.6 °F 93% 29.68 in 9.0 mi Calm Calm - 0.00 in Rain Light Rain
12:53 PM 36.0 °F - 34.0 °F 93% 29.68 in 8.0 mi Calm Calm - 0.00 in   Overcast
1:30 PM 35.6 °F 32.8 °F 35.6 °F 100% 29.68 in 8.0 mi SE 3.5 mph - N/A   Overcast
1:53 PM 37.9 °F 32.7 °F 36.0 °F 93% 29.69 in 9.0 mi SSW 6.9 mph - 0.00 in Rain Light Rain
2:39 PM 37.4 °F 33.8 °F 35.6 °F 93% 29.70 in 5.0 mi South 4.6 mph - 0.01 in Rain Light Rain
2:53 PM 37.0 °F 34.5 °F 35.1 °F 93% 29.70 in 7.0 mi SE 3.5 mph - 0.01 in Rain Light Rain
3:35 PM 35.6 °F 31.7 °F 33.8 °F 93% 29.71 in 7.0 mi SE 4.6 mph - 0.00 in Rain Light Rain
3:53 PM 36.0 °F 32.1 °F 35.1 °F 97% 29.71 in 5.0 mi SE 4.6 mph - 0.01 in Rain Light Rain
4:34 PM 35.6 °F - 35.6 °F 100% 29.72 in 6.0 mi Calm Calm - 0.01 in Rain Light Rain
4:53 PM 35.1 °F 31.0 °F 34.0 °F 96% 29.72 in 6.0 mi North 4.6 mph - 0.03 in Rain Light Rain
5:02 PM 35.6 °F 32.8 °F 33.8 °F 93% 29.72 in 6.0 mi NE 3.5 mph - 0.01 in Rain Light Rain
5:53 PM 35.1 °F 32.2 °F 34.0 °F 96% 29.74 in 6.0 mi East 3.5 mph - 0.01 in Rain Light Rain
6:36 PM 35.6 °F 32.8 °F 33.8 °F 93% 29.75 in 6.0 mi East 3.5 mph - 0.05 in Rain Light Rain
6:44 PM 35.6 °F - 33.8 °F 93% 29.75 in 7.0 mi Calm Calm - 0.05 in Rain Light Rain
6:53 PM 35.1 °F - 35.1 °F 100% 29.75 in 7.0 mi Calm Calm - 0.05 in Rain Light Rain
7:04 PM 35.6 °F - 33.8 °F 93% 29.75 in 7.0 mi Calm Calm - 0.01 in Rain Light Rain
7:53 PM 35.1 °F - 35.1 °F 100% 29.76 in 8.0 mi Calm Calm - 0.03 in Rain Light Rain
8:53 PM 37.0 °F 32.4 °F 35.1 °F 93% 29.77 in 3.0 mi WSW 5.8 mph - 0.04 in Rain Rain
9:53 PM 37.9 °F 34.4 °F 36.0 °F 93% 29.78 in 10.0 mi WSW 4.6 mph - 0.06 in Rain Light Rain
10:53 PM 39.0 °F 34.8 °F 37.0 °F 93% 29.79 in 9.0 mi WSW 5.8 mph - 0.01 in Rain Light Rain
11:53 PM 39.0 °F 34.0 °F 37.0 °F 93% 29.81 in 10.0 mi West 6.9 mph - 0.00 in   Overcast